JY1SAT (JO-97)

Last updated on Thu Oct 30 2025 00:03:10 GMT+0000 (Coordinated Universal Time)

1 43803U 18099AX 25302.41825926 .00020426 00000+0 82282-3 0 9992 2 43803 97.4487 0.4284 0006979 20.5567 339.5950 15.24861716378354
UTC large
Height (km)
Speed (km/s)
/
Latitude / Longitude
Inclination (degrees)
Orbital Period (minutes)
Azimuth
Elevation
Range (km)
Doppler Factor

Next 0 passes for location: London (51.5072 / 0.1276)

Sorry there are no passes over London.